This is the latest recevied weather packets stored in our database for station/object K5OLV. If no packets are shown the sender has not sent any weather packets the latest 10 day(s).
| Time | Temp. | Humidity | Pressure | Rain* | Wind** | Luminosity | Snow |
|---|---|---|---|---|---|---|---|
| 1777558698 | 11.67° C | 89% | 1011.2 hPa | 0 mm | - | 589 W/m² | - |
| 1777558395 | 11.67° C | 88% | 1011.2 hPa | 0 mm | - | 522 W/m² | - |
| 1777558091 | 11.67° C | 89% | 1011.1 hPa | 0 mm | - | 503 W/m² | - |
| 1777557787 | 11.67° C | 90% | 1011.1 hPa | 0 mm | - | 317 W/m² | - |
| 1777557484 | 11.11° C | 90% | 1011.2 hPa | 0 mm | - | 498 W/m² | - |
| 1777557180 | 11.11° C | 92% | 1011.1 hPa | 0 mm | - | 327 W/m² | - |
| 1777556875 | 11.11° C | 93% | 1011.3 hPa | 0 mm | - | 383 W/m² | - |
| 1777556572 | 11.11° C | 94% | 1011.1 hPa | 0 mm | - | 371 W/m² | - |
| 1777556272 | 11.11° C | 93% | 1010.9 hPa | 0 mm | - | 425 W/m² | - |
| 1777555968 | 11.11° C | 94% | 1010.9 hPa | 0 mm | - | 395 W/m² | - |
| 1777555663 | 11.11° C | 94% | 1011 hPa | 0 mm | - | 342 W/m² | - |
| 1777555360 | 10.56° C | 94% | 1011 hPa | 0 mm | - | 303 W/m² | - |
| 1777555057 | 10.56° C | 94% | 1010.9 hPa | 0 mm | - | 301 W/m² | - |
| 1777554754 | 10.56° C | 94% | 1011.1 hPa | 0 mm | - | 255 W/m² | - |
| 1777554451 | 10.56° C | 94% | 1010.7 hPa | 0 mm | - | 270 W/m² | - |
| 1777554147 | 10.56° C | 94% | 1010.8 hPa | 0 mm | - | 257 W/m² | - |
| 1777553845 | 10.56° C | 94% | 1010.7 hPa | 0 mm | - | 235 W/m² | - |
| 1777553541 | 10° C | 94% | 1010.6 hPa | 0 mm | - | 214 W/m² | - |
| 1777553237 | 10° C | 94% | 1010.8 hPa | 0 mm | - | 202 W/m² | - |
| 1777552933 | 10° C | 94% | 1010.9 hPa | 0 mm | - | 177 W/m² | - |
| 1777552627 | 10° C | 94% | 1010.8 hPa | 0 mm | - | 151 W/m² | - |
| 1777552325 | 10° C | 95% | 1010.4 hPa | 0 mm | - | 120 W/m² | - |
| 1777552021 | 10° C | 95% | 1010.6 hPa | 0 mm | - | 74 W/m² | - |
| 1777551718 | 9.44° C | 96% | 1010.4 hPa | 0 mm | - | 48 W/m² | - |
| 1777551415 | 10° C | 96% | 1010.6 hPa | 0 mm | - | 46 W/m² | - |
* Rain latest hour (hover to see other rain measurements)
** Current wind speed in m/s (hover to see current wind gust speed)